This is the latest recevied weather packets stored in our database for station/object EFIV. If no packets are shown the sender has not sent any weather packets the latest 10 day(s).
| Time | Temp. | Humidity | Pressure | Rain* | Wind** | Luminosity | Snow |
|---|---|---|---|---|---|---|---|
| 1787576635 | 14.44° C | 54% | 1015.3 hPa | - | - | - | - |
| 1787575435 | 13.89° C | 55% | 1015.3 hPa | - | - | - | - |
| 1787574234 | 13.89° C | 59% | 1015.4 hPa | - | - | - | - |
| 1787570425 | 13.33° C | 61% | 1015.4 hPa | - | - | - | - |
| 1787569226 | 13.33° C | 58% | 1015.4 hPa | - | - | - | - |
| 1787568234 | 12.78° C | 59% | 1015.3 hPa | - | - | - | - |
| 1787567034 | 12.78° C | 60% | 1015.3 hPa | - | - | - | - |
| 1787565833 | 12.78° C | 60% | 1015.2 hPa | - | - | - | - |
| 1787563434 | 12.78° C | 63% | 1015.2 hPa | - | - | - | - |
| 1787561033 | 12.22° C | 63% | 1015.2 hPa | - | - | - | - |
| 1787559624 | 11.67° C | 71% | 1015.4 hPa | - | - | - | - |
| 1787558633 | 11.67° C | 72% | 1015.4 hPa | - | - | - | - |
| 1787557431 | 11.67° C | 71% | 1015.4 hPa | - | - | - | - |
| 1787556230 | 11.67° C | 77% | 1015.4 hPa | - | - | - | - |
| 1787554823 | 11.11° C | 80% | 1015.4 hPa | - | - | - | - |
| 1787553831 | 11.11° C | 80% | 1015.3 hPa | - | - | - | - |
| 1787552631 | 11.11° C | 84% | 1015.4 hPa | - | - | - | - |
| 1787551432 | 10.56° C | 86% | 1015.5 hPa | - | - | - | - |
| 1787550232 | 10.56° C | 86% | 1015.6 hPa | - | - | - | - |
| 1787549033 | 10.56° C | 89% | 1015.4 hPa | - | - | - | - |
| 1787547833 | 10.56° C | 91% | 1015.5 hPa | - | - | - | - |
| 1787545432 | 10° C | 93% | 1015.6 hPa | - | - | - | - |
| 1787544232 | 10° C | 93% | 1015.6 hPa | - | - | - | - |
| 1787543034 | 10° C | 93% | 1015.3 hPa | - | - | - | - |
| 1787541831 | 10° C | 92% | 1015.3 hPa | - | - | - | - |
* Rain since midnight (hover to see other rain measurements)
** Current wind speed in m/s (hover to see current wind gust speed)